Time,TemperatureF,DewpointF,PressureIn,WindDirection,WindDirectionDegrees,WindSpeedMPH,WindSpeedGustMPH,Humidity,HourlyPrecipIn,Conditions,Clouds,dailyrainin,SoftwareType,DateUTC
2013-03-02 00:01:00,38.5,18.4,29.94,NNE,22,0.0,0.0,44,0.00,CLR,,0.00,WeatherDisplay:10.37,2013-03-02 07:01:00,
2013-03-02 00:06:00,38.5,18.4,29.94,NNW,338,0.0,0.0,44,0.00,CLR,,0.00,WeatherDisplay:10.37,2013-03-02 07:06:00,
2013-03-02 00:11:00,38.1,18.6,29.94,NW,315,0.0,0.0,45,0.00,CLR,,0.00,WeatherDisplay:10.37,2013-03-02 07:11:00,
2013-03-02 00:16:00,37.8,18.3,29.94,NE,45,0.0,0.0,45,0.00,CLR,,0.00,WeatherDisplay:10.37,2013-03-02 07:16:00,
2013-03-02 00:21:00,37.6,18.1,29.94,NW,315,1.2,1.2,45,0.00,CLR,,0.00,WeatherDisplay:10.37,2013-03-02 07:21:00,
2013-03-02 00:26:00,37.4,18.0,29.94,NNW,338,0.0,0.0,45,0.00,CLR,,0.00,WeatherDisplay:10.37,2013-03-02 07:26:00,
2013-03-02 00:31:00,37.4,18.5,29.94,NNE,22,0.0,0.0,46,0.00,CLR,,0.00,WeatherDisplay:10.37,2013-03-02 07:31:00,
2013-03-02 00:36:00,37.4,18.5,29.95,NNE,22,0.0,0.0,46,0.00,CLR,,0.00,WeatherDisplay:10.37,2013-03-02 07:36:00,
2013-03-02 00:41:00,37.0,18.1,29.94,North,0,0.0,0.0,46,0.00,CLR,,0.00,WeatherDisplay:10.37,2013-03-02 07:41:00,
2013-03-02 00:46:00,37.0,18.7,29.95,North,0,0.0,0.0,47,0.00,CLR,,0.00,WeatherDisplay:10.37,2013-03-02 07:46:00,
2013-03-02 00:51:00,36.9,18.5,29.95,North,0,0.0,0.0,47,0.00,CLR,,0.00,WeatherDisplay:10.37,2013-03-02 07:51:00,
2013-03-02 00:56:00,36.7,18.3,29.95,NE,45,0.0,0.0,47,0.00,CLR,,0.00,WeatherDisplay:10.37,2013-03-02 07:56:00,
2013-03-02 01:01:00,36.5,18.2,29.95,North,0,0.0,0.2,47,0.00,CLR,,0.00,WeatherDisplay:10.37,2013-03-02 08:01:00,
2013-03-02 01:06:00,36.3,18.5,29.95,North,0,0.2,0.2,48,0.00,CLR,,0.00,WeatherDisplay:10.37,2013-03-02 08:06:00,
2013-03-02 01:11:00,36.3,18.5,29.96,WNW,292,0.0,0.0,48,0.00,CLR,,0.00,WeatherDisplay:10.37,2013-03-02 08:11:00,
2013-03-02 01:16:00,36.3,18.5,29.96,North,0,0.0,0.0,48,0.00,CLR,,0.00,WeatherDisplay:10.37,2013-03-02 08:16:00,
2013-03-02 01:21:00,36.0,18.1,29.96,North,0,0.0,0.0,48,0.00,CLR,,0.00,WeatherDisplay:10.37,2013-03-02 08:21:00,
2013-03-02 01:26:00,36.0,19.1,29.96,North,0,2.3,2.3,50,0.00,CLR,,0.00,WeatherDisplay:10.37,2013-03-02 08:26:00,
2013-03-02 01:31:00,36.3,19.0,29.96,NE,45,1.2,1.2,49,0.00,CLR,,0.00,WeatherDisplay:10.37,2013-03-02 08:31:00,
2013-03-02 01:36:00,36.5,19.1,29.96,NNW,338,1.2,1.2,49,0.00,CLR,,0.00,WeatherDisplay:10.37,2013-03-02 08:36:00,
2013-03-02 01:41:00,36.5,19.1,29.96,NNE,22,1.2,1.2,49,0.00,CLR,,0.00,WeatherDisplay:10.37,2013-03-02 08:41:00,
2013-03-02 01:46:00,36.5,19.1,29.96,NNW,338,1.2,1.2,49,0.00,CLR,,0.00,WeatherDisplay:10.37,2013-03-02 08:46:00,
2013-03-02 01:51:00,36.7,19.3,29.96,NW,315,0.0,0.0,49,0.00,CLR,,0.00,WeatherDisplay:10.37,2013-03-02 08:51:00,
2013-03-02 01:56:00,36.7,19.3,29.96,NNW,338,0.0,0.0,49,0.00,CLR,,0.00,WeatherDisplay:10.37,2013-03-02 08:56:00,
2013-03-02 02:01:00,36.5,19.1,29.96,North,0,0.5,0.5,49,0.00,CLR,,0.00,WeatherDisplay:10.37,2013-03-02 09:01:00,
2013-03-02 02:06:00,36.3,19.0,29.96,NNW,338,0.0,0.0,49,0.00,CLR,,0.00,WeatherDisplay:10.37,2013-03-02 09:06:00,
2013-03-02 02:11:00,36.3,19.4,29.96,NNE,22,1.2,1.2,50,0.00,CLR,,0.00,WeatherDisplay:10.37,2013-03-02 09:11:00,
2013-03-02 02:16:00,36.3,19.4,29.96,NNE,22,0.0,0.0,50,0.00,CLR,,0.00,WeatherDisplay:10.37,2013-03-02 09:16:00,
2013-03-02 02:21:00,36.1,18.8,29.96,NNE,22,0.5,0.5,49,0.00,CLR,,0.00,WeatherDisplay:10.37,2013-03-02 09:21:00,
2013-03-02 02:26:00,36.0,18.6,29.96,North,0,0.0,0.0,49,0.00,CLR,,0.00,WeatherDisplay:10.37,2013-03-02 09:26:00,
2013-03-02 02:31:00,35.6,18.8,29.96,North,0,0.0,0.0,50,0.00,CLR,,0.00,WeatherDisplay:10.37,2013-03-02 09:31:00,
2013-03-02 02:36:00,35.4,18.6,29.96,North,0,0.0,0.0,50,0.00,CLR,,0.00,WeatherDisplay:10.37,2013-03-02 09:36:00,
2013-03-02 02:41:00,35.2,18.4,29.95,North,0,0.0,0.0,50,0.00,CLR,,0.00,WeatherDisplay:10.37,2013-03-02 09:41:00,
2013-03-02 02:46:00,34.9,18.6,29.95,NNW,338,0.0,0.0,51,0.00,CLR,,0.00,WeatherDisplay:10.37,2013-03-02 09:46:00,
2013-03-02 02:51:00,34.7,18.4,29.95,North,0,0.0,0.0,51,0.00,CLR,,0.00,WeatherDisplay:10.37,2013-03-02 09:51:00,
2013-03-02 02:56:00,34.5,18.2,29.95,North,0,0.5,0.5,51,0.00,CLR,,0.00,WeatherDisplay:10.37,2013-03-02 09:56:00,
2013-03-02 03:01:00,34.3,18.1,29.95,North,0,0.5,0.5,51,0.00,CLR,,0.00,WeatherDisplay:10.37,2013-03-02 10:01:00,
2013-03-02 03:06:00,34.2,18.3,29.95,NNW,338,0.0,0.0,52,0.00,CLR,,0.00,WeatherDisplay:10.37,2013-03-02 10:06:00,
2013-03-02 03:11:00,34.2,18.3,29.95,North,0,0.0,0.0,52,0.00,CLR,,0.00,WeatherDisplay:10.37,2013-03-02 10:11:00,
2013-03-02 03:16:00,34.0,18.2,29.95,NNE,22,0.0,0.0,52,0.00,CLR,,0.00,WeatherDisplay:10.37,2013-03-02 10:16:00,
2013-03-02 03:21:00,33.8,18.0,29.95,NNE,22,0.0,0.0,52,0.00,CLR,,0.00,WeatherDisplay:10.37,2013-03-02 10:21:00,
2013-03-02 03:26:00,33.4,17.7,29.95,NE,45,0.0,0.0,52,0.00,CLR,,0.00,WeatherDisplay:10.37,2013-03-02 10:26:00,
2013-03-02 03:31:00,33.4,18.1,29.95,NNE,22,0.2,0.2,53,0.00,CLR,,0.00,WeatherDisplay:10.37,2013-03-02 10:31:00,
2013-03-02 03:36:00,33.1,17.8,29.95,North,0,0.0,0.0,53,0.00,CLR,,0.00,WeatherDisplay:10.37,2013-03-02 10:36:00,
2013-03-02 03:41:00,33.1,17.8,29.95,ENE,68,0.0,0.2,53,0.00,CLR,,0.00,WeatherDisplay:10.37,2013-03-02 10:41:00,
2013-03-02 03:46:00,32.9,18.1,29.95,NE,45,0.0,0.0,54,0.00,CLR,,0.00,WeatherDisplay:10.37,2013-03-02 10:46:00,
2013-03-02 03:51:00,32.7,17.9,29.96,ESE,112,1.2,1.2,54,0.00,CLR,,0.00,WeatherDisplay:10.37,2013-03-02 10:51:00,
2013-03-02 03:56:00,32.7,18.3,29.96,East,90,0.2,0.2,55,0.00,CLR,,0.00,WeatherDisplay:10.37,2013-03-02 10:56:00,
2013-03-02 04:01:00,33.1,18.7,29.96,East,90,0.0,0.0,55,0.00,CLR,,0.00,WeatherDisplay:10.37,2013-03-02 11:01:00,
2013-03-02 04:06:00,33.3,19.2,29.96,North,0,1.2,1.2,56,0.00,CLR,,0.00,WeatherDisplay:10.37,2013-03-02 11:06:00,
2013-03-02 04:11:00,33.4,19.4,29.97,NE,45,1.2,1.2,56,0.00,CLR,,0.00,WeatherDisplay:10.37,2013-03-02 11:11:00,
2013-03-02 04:16:00,33.8,19.3,29.97,North,0,0.0,0.0,55,0.00,CLR,,0.00,WeatherDisplay:10.37,2013-03-02 11:16:00,
2013-03-02 04:21:00,33.8,19.3,29.97,North,0,1.2,1.2,55,0.00,CLR,,0.00,WeatherDisplay:10.37,2013-03-02 11:21:00,
2013-03-02 04:26:00,34.0,19.5,29.97,North,0,0.5,0.5,55,0.00,CLR,,0.00,WeatherDisplay:10.37,2013-03-02 11:26:00,
2013-03-02 04:31:00,34.0,19.5,29.97,North,0,1.2,1.2,55,0.00,CLR,,0.00,WeatherDisplay:10.37,2013-03-02 11:31:00,
2013-03-02 04:36:00,34.0,19.5,29.97,NNW,338,1.2,1.4,55,0.00,CLR,,0.00,WeatherDisplay:10.37,2013-03-02 11:36:00,
2013-03-02 04:41:00,34.2,19.7,29.97,NNE,22,0.2,0.2,55,0.00,CLR,,0.00,WeatherDisplay:10.37,2013-03-02 11:41:00,
2013-03-02 04:46:00,34.2,19.7,29.97,NNW,338,0.5,0.5,55,0.00,CLR,,0.00,WeatherDisplay:10.37,2013-03-02 11:46:00,
2013-03-02 04:51:00,34.2,19.7,29.97,North,0,0.0,0.0,55,0.00,CLR,,0.00,WeatherDisplay:10.37,2013-03-02 11:51:00,
2013-03-02 04:56:00,34.0,19.5,29.97,NNW,338,2.3,2.3,55,0.00,CLR,,0.00,WeatherDisplay:10.37,2013-03-02 11:56:00,
2013-03-02 05:01:00,34.2,20.1,29.97,NW,315,1.2,1.2,56,0.00,CLR,,0.00,WeatherDisplay:10.37,2013-03-02 12:01:00,
2013-03-02 05:06:00,34.5,20.0,29.97,NNW,338,1.2,1.2,55,0.00,CLR,,0.00,WeatherDisplay:10.37,2013-03-02 12:06:00,
2013-03-02 05:11:00,34.5,20.0,29.97,North,0,0.2,0.2,55,0.00,CLR,,0.00,WeatherDisplay:10.37,2013-03-02 12:11:00,
2013-03-02 05:16:00,34.2,19.7,29.97,North,0,1.2,0.0,55,0.00,CLR,,0.00,WeatherDisplay:10.37,2013-03-02 12:16:00,
2013-03-02 05:21:00,34.0,19.5,29.97,North,0,0.0,0.0,55,0.00,CLR,,0.00,WeatherDisplay:10.37,2013-03-02 12:21:00,
2013-03-02 05:26:00,33.8,18.9,29.98,NNW,338,0.5,0.5,54,0.00,CLR,,0.00,WeatherDisplay:10.37,2013-03-02 12:26:00,
2013-03-02 05:31:00,33.4,18.6,29.98,NNW,338,0.0,0.0,54,0.00,CLR,,0.00,WeatherDisplay:10.37,2013-03-02 12:31:00,
2013-03-02 05:36:00,33.1,18.7,29.98,NNW,338,0.2,0.2,55,0.00,CLR,,0.00,WeatherDisplay:10.37,2013-03-02 12:36:00,
2013-03-02 05:41:00,32.9,18.5,29.97,NNW,338,0.5,0.5,55,0.00,CLR,,0.00,WeatherDisplay:10.37,2013-03-02 12:41:00,
2013-03-02 05:46:00,32.7,18.3,29.97,NW,315,0.0,0.0,55,0.00,CLR,,0.00,WeatherDisplay:10.37,2013-03-02 12:46:00,
2013-03-02 05:51:00,32.5,18.6,29.97,North,0,1.2,0.0,56,0.00,CLR,,0.00,WeatherDisplay:10.37,2013-03-02 12:51:00,
2013-03-02 05:56:00,32.4,18.4,29.98,NW,315,0.5,0.5,56,0.00,CLR,,0.00,WeatherDisplay:10.37,2013-03-02 12:56:00,
2013-03-02 06:01:00,32.2,18.2,29.98,NW,315,0.0,0.0,56,0.00,CLR,,0.00,WeatherDisplay:10.37,2013-03-02 13:01:00,
2013-03-02 06:06:00,32.0,18.1,29.98,NNW,338,0.0,0.5,56,0.00,CLR,,0.00,WeatherDisplay:10.37,2013-03-02 13:06:00,
2013-03-02 06:11:00,32.0,17.6,29.98,NNW,338,0.0,0.0,55,0.00,CLR,,0.00,WeatherDisplay:10.37,2013-03-02 13:11:00,
2013-03-02 06:16:00,31.6,17.7,29.98,North,0,0.0,0.0,56,0.00,CLR,,0.00,WeatherDisplay:10.37,2013-03-02 13:16:00,
2013-03-02 06:21:00,31.6,17.7,29.98,NE,45,0.0,0.0,56,0.00,CLR,,0.00,WeatherDisplay:10.37,2013-03-02 13:21:00,
2013-03-02 06:26:00,31.3,17.4,29.98,North,0,0.0,0.0,56,0.00,CLR,,0.00,WeatherDisplay:10.37,2013-03-02 13:26:00,
2013-03-02 06:31:00,31.3,17.4,29.98,NW,315,1.2,0.0,56,0.00,CLR,,0.00,WeatherDisplay:10.37,2013-03-02 13:31:00,
2013-03-02 06:36:00,31.1,17.6,29.98,NNE,22,0.5,0.5,57,0.00,CLR,,0.00,WeatherDisplay:10.37,2013-03-02 13:36:00,
2013-03-02 06:41:00,31.1,18.0,29.98,NW,315,0.5,0.5,58,0.00,CLR,,0.00,WeatherDisplay:10.37,2013-03-02 13:41:00,
2013-03-02 06:46:00,31.1,18.0,29.98,NNW,338,0.0,0.0,58,0.00,CLR,,0.00,WeatherDisplay:10.37,2013-03-02 13:46:00,
2013-03-02 06:51:00,31.1,18.0,29.99,North,0,0.0,0.0,58,0.00,CLR,,0.00,WeatherDisplay:10.37,2013-03-02 13:51:00,
2013-03-02 06:56:00,31.3,18.2,29.99,NE,45,0.0,0.0,58,0.00,CLR,,0.00,WeatherDisplay:10.37,2013-03-02 13:56:00,
2013-03-02 07:01:00,31.3,18.2,29.99,North,0,0.0,0.0,58,0.00,CLR,,0.00,WeatherDisplay:10.37,2013-03-02 14:01:00,
2013-03-02 07:06:00,31.3,18.6,29.99,NNE,22,0.5,0.5,59,0.00,CLR,,0.00,WeatherDisplay:10.37,2013-03-02 14:06:00,
2013-03-02 07:11:00,31.3,18.6,29.98,North,0,0.0,0.0,59,0.00,CLR,,0.00,WeatherDisplay:10.37,2013-03-02 14:11:00,
2013-03-02 07:16:00,31.3,18.6,29.99,NNW,338,0.0,0.0,59,0.00,CLR,,0.00,WeatherDisplay:10.37,2013-03-02 14:16:00,
2013-03-02 07:21:00,31.3,18.6,29.99,NW,315,0.0,0.0,59,0.00,CLR,,0.00,WeatherDisplay:10.37,2013-03-02 14:21:00,
2013-03-02 07:26:00,31.5,19.2,29.99,NNW,338,0.0,0.0,60,0.00,CLR,,0.00,WeatherDisplay:10.37,2013-03-02 14:26:00,
2013-03-02 07:31:00,31.8,19.5,29.99,NNW,338,0.0,0.0,60,0.00,CLR,,0.00,WeatherDisplay:10.37,2013-03-02 14:31:00,
2013-03-02 07:36:00,32.2,19.8,29.99,NW,315,1.2,1.2,60,0.00,CLR,,0.00,WeatherDisplay:10.37,2013-03-02 14:36:00,
2013-03-02 07:41:00,32.7,20.4,30.00,WSW,248,0.0,0.0,60,0.00,CLR,,0.00,WeatherDisplay:10.37,2013-03-02 14:41:00,
2013-03-02 07:46:00,33.4,21.0,30.00,WNW,292,1.2,1.2,60,0.00,CLR,,0.00,WeatherDisplay:10.37,2013-03-02 14:46:00,
2013-03-02 07:51:00,34.2,21.3,30.00,WSW,248,0.0,0.5,59,0.00,CLR,,0.00,WeatherDisplay:10.37,2013-03-02 14:51:00,
2013-03-02 07:56:00,35.1,22.2,30.00,WSW,248,0.0,0.0,59,0.00,CLR,,0.00,WeatherDisplay:10.37,2013-03-02 14:56:00,
2013-03-02 08:01:00,35.6,22.3,30.00,SW,225,1.2,1.2,58,0.00,CLR,,0.00,WeatherDisplay:10.37,2013-03-02 15:01:00,
2013-03-02 08:06:00,36.3,22.5,30.00,SSW,202,1.2,1.2,57,0.00,CLR,,0.00,WeatherDisplay:10.37,2013-03-02 15:06:00,
2013-03-02 08:11:00,36.7,22.4,30.00,WSW,248,0.0,0.0,56,0.00,CLR,,0.00,WeatherDisplay:10.37,2013-03-02 15:11:00,
2013-03-02 08:16:00,37.8,22.6,30.00,NW,315,2.3,2.3,54,0.00,CLR,,0.00,WeatherDisplay:10.37,2013-03-02 15:16:00,
2013-03-02 08:21:00,38.8,23.2,30.00,NNE,22,2.3,2.3,53,0.00,CLR,,0.00,WeatherDisplay:10.37,2013-03-02 15:21:00,
2013-03-02 08:26:00,39.7,23.5,30.00,NNW,338,2.3,2.3,52,0.00,CLR,,0.00,WeatherDisplay:10.37,2013-03-02 15:26:00,
2013-03-02 08:31:00,40.6,23.4,30.00,NNW,338,1.2,1.2,50,0.00,CLR,,0.00,WeatherDisplay:10.37,2013-03-02 15:31:00,
2013-03-02 08:36:00,41.4,23.6,30.00,NW,315,2.3,2.3,49,0.00,CLR,,0.00,WeatherDisplay:10.37,2013-03-02 15:36:00,
2013-03-02 08:41:00,41.9,23.6,30.00,NNW,338,4.7,4.7,48,0.00,CLR,,0.00,WeatherDisplay:10.37,2013-03-02 15:41:00,
2013-03-02 08:46:00,42.4,23.6,30.00,NW,315,4.6,4.6,47,0.00,CLR,,0.00,WeatherDisplay:10.37,2013-03-02 15:46:00,
2013-03-02 08:51:00,42.8,23.9,30.00,West,270,3.5,3.5,47,0.00,CLR,,0.00,WeatherDisplay:10.37,2013-03-02 15:51:00,
2013-03-02 08:56:00,43.5,24.1,30.00,NW,315,4.6,4.6,46,0.00,CLR,,0.00,WeatherDisplay:10.37,2013-03-02 15:56:00,
2013-03-02 09:01:00,43.9,23.9,29.99,NNW,338,3.5,3.5,45,0.00,CLR,,0.00,WeatherDisplay:10.37,2013-03-02 16:01:00,
2013-03-02 09:06:00,44.2,23.7,29.99,NNW,338,5.8,5.8,44,0.00,CLR,,0.00,WeatherDisplay:10.37,2013-03-02 16:06:00,
2013-03-02 09:11:00,44.8,23.6,29.99,NNW,338,5.8,5.8,43,0.00,CLR,,0.00,WeatherDisplay:10.37,2013-03-02 16:11:00,
2013-03-02 09:16:00,45.1,23.9,29.99,NW,315,5.8,5.8,43,0.00,CLR,,0.00,WeatherDisplay:10.37,2013-03-02 16:16:00,
2013-03-02 09:21:00,45.5,23.7,29.99,NNW,338,4.6,4.6,42,0.00,CLR,,0.00,WeatherDisplay:10.37,2013-03-02 16:21:00,
2013-03-02 09:26:00,46.0,23.6,29.98,NW,315,3.3,3.3,41,0.00,CLR,,0.00,WeatherDisplay:10.37,2013-03-02 16:26:00,
2013-03-02 09:31:00,46.4,23.9,29.98,NW,315,3.5,3.5,41,0.00,CLR,,0.00,WeatherDisplay:10.37,2013-03-02 16:31:00,
2013-03-02 09:36:00,46.8,23.7,29.99,NW,315,3.5,3.5,40,0.00,CLR,,0.00,WeatherDisplay:10.37,2013-03-02 16:36:00,
2013-03-02 09:41:00,47.1,23.4,29.98,ENE,68,4.6,4.6,39,0.00,CLR,,0.00,WeatherDisplay:10.37,2013-03-02 16:41:00,
2013-03-02 09:46:00,47.3,23.6,29.98,NNE,22,4.6,4.6,39,0.00,CLR,,0.00,WeatherDisplay:10.37,2013-03-02 16:46:00,
2013-03-02 09:51:00,47.8,24.0,29.98,NW,315,3.5,3.5,39,0.00,CLR,,0.00,WeatherDisplay:10.37,2013-03-02 16:51:00,
2013-03-02 09:56:00,48.2,23.7,29.98,WSW,248,4.6,4.6,38,0.00,CLR,,0.00,WeatherDisplay:10.37,2013-03-02 16:56:00,
2013-03-02 10:01:00,48.6,24.1,30.00,NNW,338,3.5,3.5,38,0.00,CLR,,0.00,WeatherDisplay:10.37,2013-03-02 17:01:00,
2013-03-02 10:06:00,48.9,24.4,30.01,NNW,338,6.9,6.9,38,0.00,CLR,,0.00,WeatherDisplay:10.37,2013-03-02 17:06:00,
2013-03-02 10:11:00,49.3,24.7,30.01,NNW,338,4.6,4.6,38,0.00,CLR,,0.00,WeatherDisplay:10.37,2013-03-02 17:11:00,
2013-03-02 10:16:00,49.8,24.6,30.00,NW,315,2.3,2.3,37,0.00,CLR,,0.00,WeatherDisplay:10.37,2013-03-02 17:16:00,
2013-03-02 10:21:00,50.2,24.2,30.00,NNW,338,4.6,4.6,36,0.00,CLR,,0.00,WeatherDisplay:10.37,2013-03-02 17:21:00,
2013-03-02 10:26:00,50.2,24.2,30.00,WNW,292,3.5,3.5,36,0.00,CLR,,0.00,WeatherDisplay:10.37,2013-03-02 17:26:00,
2013-03-02 10:31:00,50.5,23.2,29.99,NNW,338,4.6,4.6,34,0.00,CLR,,0.00,WeatherDisplay:10.37,2013-03-02 17:31:00,
2013-03-02 10:36:00,50.7,24.0,29.99,NNE,22,3.5,3.5,35,0.00,CLR,,0.00,WeatherDisplay:10.37,2013-03-02 17:36:00,
2013-03-02 10:41:00,51.1,23.7,29.99,NW,315,3.5,3.5,34,0.00,CLR,,0.00,WeatherDisplay:10.37,2013-03-02 17:41:00,
2013-03-02 10:46:00,51.3,23.8,29.99,NNW,338,3.5,3.5,34,0.00,CLR,,0.00,WeatherDisplay:10.37,2013-03-02 17:46:00,
2013-03-02 10:51:00,51.4,23.3,29.99,NNW,338,1.6,1.6,33,0.00,CLR,,0.00,WeatherDisplay:10.37,2013-03-02 17:51:00,
2013-03-02 10:56:00,52.2,23.9,29.99,NNW,338,4.6,4.6,33,0.00,CLR,,0.00,WeatherDisplay:10.37,2013-03-02 17:56:00,
2013-03-02 11:01:00,52.5,24.2,29.98,WNW,292,5.8,5.8,33,0.00,CLR,,0.00,WeatherDisplay:10.37,2013-03-02 18:01:00,
2013-03-02 11:06:00,53.1,24.7,29.98,NW,315,2.3,2.3,33,0.00,CLR,,0.00,WeatherDisplay:10.37,2013-03-02 18:06:00,
2013-03-02 11:11:00,53.4,23.5,29.98,NE,45,4.6,4.6,31,0.00,CLR,,0.00,WeatherDisplay:10.37,2013-03-02 18:11:00,
2013-03-02 11:16:00,53.6,24.4,29.98,NW,315,3.5,3.5,32,0.00,CLR,,0.00,WeatherDisplay:10.37,2013-03-02 18:16:00,
2013-03-02 11:21:00,54.1,24.9,29.98,North,0,6.9,6.9,32,0.00,CLR,,0.00,WeatherDisplay:10.37,2013-03-02 18:21:00,
2013-03-02 11:26:00,54.5,25.2,29.98,NNW,338,3.8,3.8,32,0.00,CLR,,0.00,WeatherDisplay:10.37,2013-03-02 18:26:00,
2013-03-02 11:31:00,54.9,25.5,29.97,NW,315,4.6,4.6,32,0.00,CLR,,0.00,WeatherDisplay:10.37,2013-03-02 18:31:00,
2013-03-02 11:36:00,55.4,25.2,29.97,NNE,22,5.4,5.4,31,0.00,CLR,,0.00,WeatherDisplay:10.37,2013-03-02 18:36:00,
2013-03-02 11:41:00,55.8,24.8,29.97,NNW,338,4.6,4.6,30,0.00,CLR,,0.00,WeatherDisplay:10.37,2013-03-02 18:41:00,
2013-03-02 11:46:00,56.1,25.1,29.97,NW,315,5.8,5.8,30,0.00,CLR,,0.00,WeatherDisplay:10.37,2013-03-02 18:46:00,
2013-03-02 11:51:00,56.5,25.4,29.97,NW,315,4.6,4.6,30,0.00,CLR,,0.00,WeatherDisplay:10.37,2013-03-02 18:51:00,
2013-03-02 11:56:00,56.7,24.7,29.97,NNW,338,4.6,4.6,29,0.00,CLR,,0.00,WeatherDisplay:10.37,2013-03-02 18:56:00,
2013-03-02 12:01:00,56.5,24.6,29.96,North,0,5.8,5.8,29,0.00,CLR,,0.00,WeatherDisplay:10.37,2013-03-02 19:01:00,
2013-03-02 12:06:00,57.0,25.0,29.96,NW,315,3.5,3.5,29,0.00,CLR,,0.00,WeatherDisplay:10.37,2013-03-02 19:06:00,
2013-03-02 12:11:00,57.7,25.7,29.96,NNE,22,5.8,5.8,29,0.00,CLR,,0.00,WeatherDisplay:10.37,2013-03-02 19:11:00,
2013-03-02 12:16:00,58.3,25.3,29.95,WSW,248,5.8,5.8,28,0.00,CLR,,0.00,WeatherDisplay:10.37,2013-03-02 19:16:00,
2013-03-02 12:21:00,57.9,25.0,29.94,NNW,338,4.6,4.6,28,0.00,CLR,,0.00,WeatherDisplay:10.37,2013-03-02 19:21:00,
2013-03-02 12:26:00,58.1,25.1,29.94,WSW,248,4.6,4.6,28,0.00,CLR,,0.00,WeatherDisplay:10.37,2013-03-02 19:26:00,
2013-03-02 12:31:00,58.8,25.7,29.94,South,180,3.5,3.5,28,0.00,CLR,,0.00,WeatherDisplay:10.37,2013-03-02 19:31:00,
2013-03-02 12:36:00,59.7,25.6,29.94,NNW,338,4.6,4.6,27,0.00,CLR,,0.00,WeatherDisplay:10.37,2013-03-02 19:36:00,
2013-03-02 12:41:00,60.1,26.0,29.93,ESE,112,6.2,6.2,27,0.00,CLR,,0.00,WeatherDisplay:10.37,2013-03-02 19:41:00,
2013-03-02 12:46:00,60.6,25.5,29.93,North,0,4.0,4.0,26,0.00,CLR,,0.00,WeatherDisplay:10.37,2013-03-02 19:46:00,
2013-03-02 12:51:00,60.8,24.7,29.93,NW,315,4.6,4.7,25,0.00,CLR,,0.00,WeatherDisplay:10.37,2013-03-02 19:51:00,
2013-03-02 12:56:00,61.0,24.9,29.93,NW,315,5.8,5.8,25,0.00,CLR,,0.00,WeatherDisplay:10.37,2013-03-02 19:56:00,
2013-03-02 13:01:00,61.5,25.3,29.92,SSW,202,4.6,4.6,25,0.00,CLR,,0.00,WeatherDisplay:10.37,2013-03-02 20:01:00,
2013-03-02 13:06:00,62.1,25.8,29.92,South,180,2.3,2.3,25,0.00,CLR,,0.00,WeatherDisplay:10.37,2013-03-02 20:06:00,
2013-03-02 13:11:00,61.5,24.3,29.92,West,270,8.1,8.1,24,0.00,CLR,,0.00,WeatherDisplay:10.37,2013-03-02 20:11:00,
2013-03-02 13:16:00,61.5,24.3,29.92,WNW,292,3.5,3.5,24,0.00,CLR,,0.00,WeatherDisplay:10.37,2013-03-02 20:16:00,
2013-03-02 13:21:00,61.9,24.7,29.92,NNW,338,3.5,3.5,24,0.00,CLR,,0.00,WeatherDisplay:10.37,2013-03-02 20:21:00,
2013-03-02 13:26:00,62.1,24.8,29.91,NNW,338,4.6,4.6,24,0.00,CLR,,0.00,WeatherDisplay:10.37,2013-03-02 20:26:00,
2013-03-02 13:31:00,62.1,24.8,29.91,NW,315,4.3,4.3,24,0.00,CLR,,0.00,WeatherDisplay:10.37,2013-03-02 20:31:00,
2013-03-02 13:36:00,62.2,25.0,29.91,ENE,68,4.6,4.6,24,0.00,CLR,,0.00,WeatherDisplay:10.37,2013-03-02 20:36:00,
2013-03-02 13:41:00,62.4,24.1,29.91,WNW,292,3.5,3.5,23,0.00,CLR,,0.00,WeatherDisplay:10.37,2013-03-02 20:41:00,
2013-03-02 13:46:00,63.0,25.6,29.90,WSW,248,4.6,4.6,24,0.00,CLR,,0.00,WeatherDisplay:10.37,2013-03-02 20:46:00,
2013-03-02 13:51:00,63.3,24.8,29.90,West,270,2.3,2.4,23,0.00,CLR,,0.00,WeatherDisplay:10.37,2013-03-02 20:51:00,
2013-03-02 13:56:00,63.7,25.1,29.90,West,270,6.2,6.2,23,0.00,CLR,,0.00,WeatherDisplay:10.37,2013-03-02 20:56:00,
2013-03-02 14:01:00,63.7,25.1,29.90,NW,315,3.5,3.5,23,0.00,CLR,,0.00,WeatherDisplay:10.37,2013-03-02 21:01:00,
2013-03-02 14:06:00,64.2,24.5,29.89,NW,315,3.5,3.5,22,0.00,CLR,,0.00,WeatherDisplay:10.37,2013-03-02 21:06:00,
2013-03-02 14:11:00,64.4,24.7,29.89,SW,225,3.5,3.5,22,0.00,CLR,,0.00,WeatherDisplay:10.37,2013-03-02 21:11:00,
2013-03-02 14:16:00,64.8,25.0,29.89,WSW,248,5.8,5.8,22,0.00,CLR,,0.00,WeatherDisplay:10.37,2013-03-02 21:16:00,
2013-03-02 14:21:00,64.8,23.9,29.89,West,270,5.8,5.8,21,0.00,CLR,,0.00,WeatherDisplay:10.37,2013-03-02 21:21:00,
2013-03-02 14:26:00,64.9,25.1,29.89,West,270,2.3,2.3,22,0.00,CLR,,0.00,WeatherDisplay:10.37,2013-03-02 21:26:00,
2013-03-02 14:31:00,64.9,24.0,29.89,WSW,248,2.3,2.3,21,0.00,CLR,,0.00,WeatherDisplay:10.37,2013-03-02 21:31:00,
2013-03-02 14:36:00,64.8,25.0,29.89,East,90,4.3,4.3,22,0.00,CLR,,0.00,WeatherDisplay:10.37,2013-03-02 21:36:00,
2013-03-02 14:41:00,64.6,23.7,29.89,WSW,248,2.3,2.3,21,0.00,CLR,,0.00,WeatherDisplay:10.37,2013-03-02 21:41:00,
2013-03-02 14:46:00,65.1,25.3,29.88,NE,45,2.3,2.4,22,0.00,CLR,,0.00,WeatherDisplay:10.37,2013-03-02 21:46:00,
2013-03-02 14:51:00,65.8,25.9,29.88,WNW,292,2.3,2.3,22,0.00,CLR,,0.00,WeatherDisplay:10.37,2013-03-02 21:51:00,
2013-03-02 14:56:00,66.0,24.9,29.88,NNW,338,1.6,1.6,21,0.00,CLR,,0.00,WeatherDisplay:10.37,2013-03-02 21:56:00,
2013-03-02 15:01:00,66.2,25.1,29.87,WSW,248,3.5,3.5,21,0.00,CLR,,0.00,WeatherDisplay:10.37,2013-03-02 22:01:00,
2013-03-02 15:06:00,66.2,26.2,29.88,SSW,202,2.4,2.4,22,0.00,CLR,,0.00,WeatherDisplay:10.37,2013-03-02 22:06:00,
2013-03-02 15:11:00,66.2,25.1,29.87,SW,225,4.6,4.6,21,0.00,CLR,,0.00,WeatherDisplay:10.37,2013-03-02 22:11:00,
2013-03-02 15:16:00,66.2,25.1,29.87,West,270,4.6,4.6,21,0.00,CLR,,0.00,WeatherDisplay:10.37,2013-03-02 22:16:00,
2013-03-02 15:21:00,65.8,24.8,29.87,WSW,248,2.3,2.3,21,0.00,CLR,,0.00,WeatherDisplay:10.37,2013-03-02 22:21:00,
2013-03-02 15:26:00,65.8,24.8,29.87,SSW,202,5.8,5.8,21,0.00,CLR,,0.00,WeatherDisplay:10.37,2013-03-02 22:26:00,
2013-03-02 15:31:00,65.5,24.5,29.87,SW,225,5.8,5.8,21,0.00,CLR,,0.00,WeatherDisplay:10.37,2013-03-02 22:31:00,
2013-03-02 15:36:00,65.5,24.5,29.87,WSW,248,2.4,2.4,21,0.00,CLR,,0.00,WeatherDisplay:10.37,2013-03-02 22:36:00,
2013-03-02 15:41:00,65.5,24.5,29.87,WNW,292,3.5,3.5,21,0.00,CLR,,0.00,WeatherDisplay:10.37,2013-03-02 22:41:00,
2013-03-02 15:46:00,66.2,25.1,29.87,SSW,202,2.3,2.6,21,0.00,CLR,,0.00,WeatherDisplay:10.37,2013-03-02 22:46:00,
2013-03-02 15:51:00,66.7,25.5,29.87,WSW,248,3.6,3.6,21,0.00,CLR,,0.00,WeatherDisplay:10.37,2013-03-02 22:51:00,
2013-03-02 15:56:00,66.7,23.1,29.86,WSW,248,3.5,3.5,19,0.00,CLR,,0.00,WeatherDisplay:10.37,2013-03-02 22:56:00,
2013-03-02 16:01:00,66.4,25.2,29.86,SW,225,6.2,6.2,21,0.00,CLR,,0.00,WeatherDisplay:10.37,2013-03-02 23:01:00,
2013-03-02 16:06:00,66.6,24.2,29.86,West,270,5.2,5.2,20,0.00,CLR,,0.00,WeatherDisplay:10.37,2013-03-02 23:06:00,
2013-03-02 16:11:00,66.4,24.1,29.86,SSW,202,3.5,3.5,20,0.00,CLR,,0.00,WeatherDisplay:10.37,2013-03-02 23:11:00,
2013-03-02 16:16:00,66.4,25.2,29.86,SW,225,4.6,4.6,21,0.00,CLR,,0.00,WeatherDisplay:10.37,2013-03-02 23:16:00,
2013-03-02 16:21:00,66.6,25.4,29.85,WSW,248,4.6,4.6,21,0.00,CLR,,0.00,WeatherDisplay:10.37,2013-03-02 23:21:00,
2013-03-02 16:26:00,66.4,24.1,29.86,WNW,292,4.6,4.6,20,0.00,CLR,,0.00,WeatherDisplay:10.37,2013-03-02 23:26:00,
2013-03-02 16:31:00,66.0,24.9,29.85,WNW,292,3.5,3.5,21,0.00,CLR,,0.00,WeatherDisplay:10.37,2013-03-02 23:31:00,
2013-03-02 16:36:00,66.0,24.9,29.85,WSW,248,1.2,1.2,21,0.00,CLR,,0.00,WeatherDisplay:10.37,2013-03-02 23:36:00,
2013-03-02 16:41:00,66.2,25.1,29.85,SSE,158,2.3,2.3,21,0.00,CLR,,0.00,WeatherDisplay:10.37,2013-03-02 23:41:00,
2013-03-02 16:46:00,66.4,25.2,29.84,WSW,248,2.6,2.6,21,0.00,CLR,,0.00,WeatherDisplay:10.37,2013-03-02 23:46:00,
2013-03-02 16:51:00,66.0,23.8,29.85,West,270,3.5,3.5,20,0.00,CLR,,0.00,WeatherDisplay:10.37,2013-03-02 23:51:00,
2013-03-02 16:56:00,65.7,24.6,29.85,WSW,248,2.4,2.4,21,0.00,CLR,,0.00,WeatherDisplay:10.37,2013-03-02 23:56:00,
2013-03-02 17:01:00,65.7,24.6,29.85,SSW,202,2.3,2.3,21,0.00,CLR,,0.00,WeatherDisplay:10.37,2013-03-03 00:01:00,
2013-03-02 17:06:00,65.7,24.6,29.84,WSW,248,3.5,3.5,21,0.00,CLR,,0.00,WeatherDisplay:10.37,2013-03-03 00:06:00,
2013-03-02 17:11:00,65.5,24.5,29.85,West,270,2.3,2.3,21,0.00,CLR,,0.00,WeatherDisplay:10.37,2013-03-03 00:11:00,
2013-03-02 17:16:00,65.3,24.3,29.84,SW,225,0.5,0.5,21,0.00,CLR,,0.00,WeatherDisplay:10.37,2013-03-03 00:16:00,
2013-03-02 17:21:00,64.9,24.0,29.84,WSW,248,2.4,2.4,21,0.00,CLR,,0.00,WeatherDisplay:10.37,2013-03-03 00:21:00,
2013-03-02 17:26:00,64.4,23.6,29.84,SW,225,0.9,0.9,21,0.00,CLR,,0.00,WeatherDisplay:10.37,2013-03-03 00:26:00,
2013-03-02 17:31:00,64.2,23.4,29.84,SW,225,2.3,2.3,21,0.00,CLR,,0.00,WeatherDisplay:10.37,2013-03-03 00:31:00,
2013-03-02 17:36:00,63.9,23.1,29.84,NW,315,2.3,2.3,21,0.00,CLR,,0.00,WeatherDisplay:10.37,2013-03-03 00:36:00,
2013-03-02 17:41:00,63.7,23.0,29.84,NW,315,1.2,1.2,21,0.00,CLR,,0.00,WeatherDisplay:10.37,2013-03-03 00:41:00,
2013-03-02 17:46:00,63.1,23.6,29.84,SSE,158,1.2,1.2,22,0.00,CLR,,0.00,WeatherDisplay:10.37,2013-03-03 00:46:00,
2013-03-02 17:51:00,62.6,23.2,29.84,SSW,202,2.3,0.0,22,0.00,CLR,,0.00,WeatherDisplay:10.37,2013-03-03 00:51:00,
2013-03-02 17:56:00,62.2,22.9,29.84,SW,225,0.5,0.5,22,0.00,CLR,,0.00,WeatherDisplay:10.37,2013-03-03 00:56:00,
2013-03-02 18:01:00,61.5,22.3,29.84,WSW,248,0.0,0.0,22,0.00,CLR,,0.00,WeatherDisplay:10.37,2013-03-03 01:01:00,
2013-03-02 18:06:00,61.0,21.8,29.84,WSW,248,0.0,0.0,22,0.00,CLR,,0.00,WeatherDisplay:10.37,2013-03-03 01:06:00,
2013-03-02 18:11:00,60.6,21.5,29.84,WSW,248,0.0,0.0,22,0.00,CLR,,0.00,WeatherDisplay:10.37,2013-03-03 01:11:00,
2013-03-02 18:16:00,59.7,20.8,29.84,WSW,248,0.0,0.0,22,0.00,CLR,,0.00,WeatherDisplay:10.37,2013-03-03 01:16:00,
2013-03-02 18:21:00,59.0,21.2,29.84,WSW,248,0.0,0.0,23,0.00,CLR,,0.00,WeatherDisplay:10.37,2013-03-03 01:21:00,
2013-03-02 18:26:00,58.3,20.6,29.84,WSW,248,0.0,0.0,23,0.00,CLR,,0.00,WeatherDisplay:10.37,2013-03-03 01:26:00,
2013-03-02 18:31:00,57.6,21.0,29.84,WSW,248,0.0,0.0,24,0.00,CLR,,0.00,WeatherDisplay:10.37,2013-03-03 01:31:00,
2013-03-02 18:36:00,57.0,20.5,29.84,SSE,158,0.0,0.0,24,0.00,CLR,,0.00,WeatherDisplay:10.37,2013-03-03 01:36:00,
2013-03-02 18:41:00,56.5,21.0,29.84,SSE,158,1.2,1.2,25,0.00,CLR,,0.00,WeatherDisplay:10.37,2013-03-03 01:41:00,
2013-03-02 18:46:00,55.8,20.4,29.84,SSE,158,0.0,0.0,25,0.00,CLR,,0.00,WeatherDisplay:10.37,2013-03-03 01:46:00,
2013-03-02 18:51:00,55.2,20.0,29.84,SSE,158,0.0,0.0,25,0.00,CLR,,0.00,WeatherDisplay:10.37,2013-03-03 01:51:00,
2013-03-02 18:56:00,54.7,20.4,29.84,ESE,112,0.0,0.0,26,0.00,CLR,,0.00,WeatherDisplay:10.37,2013-03-03 01:56:00,
2013-03-02 19:01:00,54.1,21.7,29.84,East,90,0.0,0.0,28,0.00,CLR,,0.00,WeatherDisplay:10.37,2013-03-03 02:01:00,
2013-03-02 19:06:00,53.6,21.2,29.84,East,90,0.0,0.0,28,0.00,CLR,,0.00,WeatherDisplay:10.37,2013-03-03 02:06:00,
2013-03-02 19:11:00,53.2,20.9,29.85,East,90,0.0,0.0,28,0.00,CLR,,0.00,WeatherDisplay:10.37,2013-03-03 02:11:00,
2013-03-02 19:16:00,52.7,21.3,29.85,East,90,0.0,0.0,29,0.00,CLR,,0.00,WeatherDisplay:10.37,2013-03-03 02:16:00,
2013-03-02 19:21:00,52.2,20.8,29.85,SSE,158,0.5,0.5,29,0.00,CLR,,0.00,WeatherDisplay:10.37,2013-03-03 02:21:00,
2013-03-02 19:26:00,51.8,20.5,29.84,SSE,158,0.0,0.0,29,0.00,CLR,,0.00,WeatherDisplay:10.37,2013-03-03 02:26:00,
2013-03-02 19:31:00,51.4,21.0,29.85,NE,45,0.0,0.0,30,0.00,CLR,,0.00,WeatherDisplay:10.37,2013-03-03 02:31:00,
2013-03-02 19:36:00,51.1,20.7,29.85,ENE,68,1.2,0.0,30,0.00,CLR,,0.00,WeatherDisplay:10.37,2013-03-03 02:36:00,
2013-03-02 19:41:00,50.7,21.1,29.85,ENE,68,0.0,0.0,31,0.00,CLR,,0.00,WeatherDisplay:10.37,2013-03-03 02:41:00,
2013-03-02 19:46:00,50.5,21.0,29.85,NE,45,1.2,1.2,31,0.00,CLR,,0.00,WeatherDisplay:10.37,2013-03-03 02:46:00,
2013-03-02 19:51:00,50.4,21.6,29.85,ENE,68,0.0,0.0,32,0.00,CLR,,0.00,WeatherDisplay:10.37,2013-03-03 02:51:00,
2013-03-02 19:56:00,50.0,21.3,29.85,ENE,68,0.0,0.0,32,0.00,CLR,,0.00,WeatherDisplay:10.37,2013-03-03 02:56:00,
2013-03-02 20:01:00,49.8,21.1,29.85,ENE,68,0.9,0.9,32,0.00,CLR,,0.00,WeatherDisplay:10.37,2013-03-03 03:01:00,
2013-03-02 20:06:00,49.5,20.8,29.85,ENE,68,1.2,1.2,32,0.00,CLR,,0.00,WeatherDisplay:10.37,2013-03-03 03:06:00,
2013-03-02 20:11:00,49.3,20.6,29.85,NE,45,1.2,1.2,32,0.00,CLR,,0.00,WeatherDisplay:10.37,2013-03-03 03:11:00,
2013-03-02 20:16:00,49.1,21.2,29.85,ENE,68,1.2,1.2,33,0.00,CLR,,0.00,WeatherDisplay:10.37,2013-03-03 03:16:00,
2013-03-02 20:21:00,48.9,21.0,29.85,ENE,68,0.2,0.2,33,0.00,CLR,,0.00,WeatherDisplay:10.37,2013-03-03 03:21:00,
2013-03-02 20:26:00,48.7,21.6,29.85,North,0,0.0,0.0,34,0.00,CLR,,0.00,WeatherDisplay:10.37,2013-03-03 03:26:00,
2013-03-02 20:31:00,48.6,21.4,29.85,SE,135,0.0,0.2,34,0.00,CLR,,0.00,WeatherDisplay:10.37,2013-03-03 03:31:00,
2013-03-02 20:36:00,48.4,21.3,29.85,ENE,68,0.7,0.7,34,0.00,CLR,,0.00,WeatherDisplay:10.37,2013-03-03 03:36:00,
2013-03-02 20:41:00,48.2,21.1,29.85,ENE,68,0.0,0.0,34,0.00,CLR,,0.00,WeatherDisplay:10.37,2013-03-03 03:41:00,
2013-03-02 20:46:00,47.8,20.8,29.85,ENE,68,0.0,0.0,34,0.00,CLR,,0.00,WeatherDisplay:10.37,2013-03-03 03:46:00,
2013-03-02 20:51:00,47.5,21.2,29.86,ENE,68,0.5,0.5,35,0.00,CLR,,0.00,WeatherDisplay:10.37,2013-03-03 03:51:00,
2013-03-02 20:56:00,47.3,21.7,29.86,ENE,68,0.0,0.0,36,0.00,CLR,,0.00,WeatherDisplay:10.37,2013-03-03 03:56:00,
2013-03-02 21:01:00,47.1,21.5,29.86,ESE,112,0.0,0.0,36,0.00,CLR,,0.00,WeatherDisplay:10.37,2013-03-03 04:01:00,
2013-03-02 21:06:00,47.1,21.5,29.86,SSE,158,0.2,0.2,36,0.00,CLR,,0.00,WeatherDisplay:10.37,2013-03-03 04:06:00,
2013-03-02 21:11:00,46.9,20.7,29.86,East,90,0.2,0.2,35,0.00,CLR,,0.00,WeatherDisplay:10.37,2013-03-03 04:11:00,
2013-03-02 21:16:00,46.9,20.7,29.86,NE,45,0.2,0.2,35,0.00,CLR,,0.00,WeatherDisplay:10.37,2013-03-03 04:16:00,
2013-03-02 21:21:00,46.9,21.3,29.86,ENE,68,0.0,0.0,36,0.00,CLR,,0.00,WeatherDisplay:10.37,2013-03-03 04:21:00,
2013-03-02 21:26:00,47.1,22.8,29.86,North,0,1.2,1.2,38,0.00,CLR,,0.00,WeatherDisplay:10.37,2013-03-03 04:26:00,
2013-03-02 21:31:00,46.9,22.0,29.86,NNE,22,0.0,0.0,37,0.00,CLR,,0.00,WeatherDisplay:10.37,2013-03-03 04:31:00,
2013-03-02 21:36:00,47.1,22.8,29.86,ESE,112,0.5,0.5,38,0.00,CLR,,0.00,WeatherDisplay:10.37,2013-03-03 04:36:00,
2013-03-02 21:41:00,47.1,22.8,29.85,NNE,22,0.0,0.0,38,0.00,CLR,,0.00,WeatherDisplay:10.37,2013-03-03 04:41:00,
2013-03-02 21:46:00,46.9,22.6,29.85,NNE,22,1.2,1.2,38,0.00,CLR,,0.00,WeatherDisplay:10.37,2013-03-03 04:46:00,
2013-03-02 21:51:00,46.9,22.0,29.85,NNE,22,0.0,0.0,37,0.00,CLR,,0.00,WeatherDisplay:10.37,2013-03-03 04:51:00,
2013-03-02 21:56:00,46.6,21.7,29.85,NNE,22,0.0,0.0,37,0.00,CLR,,0.00,WeatherDisplay:10.37,2013-03-03 04:56:00,
2013-03-02 22:00:00,46.2,20.7,29.85,ENE,68,0.2,0.2,36,0.00,CLR,,0.00,WeatherDisplay:10.37,2013-03-03 05:00:00,
2013-03-02 22:01:00,46.2,20.7,29.85,East,90,0.0,0.0,36,0.00,CLR,,0.00,WeatherDisplay:10.37,2013-03-03 05:01:00,
2013-03-02 22:06:00,46.0,21.2,29.85,NNE,22,0.0,0.0,37,0.00,CLR,,0.00,WeatherDisplay:10.37,2013-03-03 05:06:00,
2013-03-02 22:11:00,45.7,20.9,29.84,ENE,68,0.5,0.5,37,0.00,CLR,,0.00,WeatherDisplay:10.37,2013-03-03 05:11:00,
2013-03-02 22:16:00,45.7,21.5,29.84,ENE,68,0.0,0.0,38,0.00,CLR,,0.00,WeatherDisplay:10.37,2013-03-03 05:16:00,
2013-03-02 22:21:00,45.7,20.9,29.84,East,90,0.0,0.0,37,0.00,CLR,,0.00,WeatherDisplay:10.37,2013-03-03 05:21:00,
2013-03-02 22:26:00,45.1,20.4,29.85,NE,45,0.0,0.0,37,0.00,CLR,,0.00,WeatherDisplay:10.37,2013-03-03 05:26:00,
2013-03-02 22:31:00,45.0,20.8,29.84,NNE,22,0.0,0.0,38,0.00,CLR,,0.00,WeatherDisplay:10.37,2013-03-03 05:31:00,
2013-03-02 22:36:00,45.0,21.5,29.84,NNE,22,0.0,0.0,39,0.00,CLR,,0.00,WeatherDisplay:10.37,2013-03-03 05:36:00,
2013-03-02 22:41:00,44.8,20.7,29.84,East,90,1.2,0.0,38,0.00,CLR,,0.00,WeatherDisplay:10.37,2013-03-03 05:41:00,
2013-03-02 22:46:00,44.4,20.4,29.84,East,90,0.0,0.0,38,0.00,CLR,,0.00,WeatherDisplay:10.37,2013-03-03 05:46:00,
2013-03-02 22:51:00,44.1,20.0,29.84,East,90,0.0,0.0,38,0.00,CLR,,0.00,WeatherDisplay:10.37,2013-03-03 05:51:00,
2013-03-02 22:56:00,43.7,19.7,29.84,ESE,112,0.0,0.0,38,0.00,CLR,,0.00,WeatherDisplay:10.37,2013-03-03 05:56:00,
2013-03-02 23:01:00,43.3,19.4,29.84,NNE,22,0.0,0.0,38,0.00,CLR,,0.00,WeatherDisplay:10.37,2013-03-03 06:01:00,
2013-03-02 23:06:00,43.2,19.8,29.84,NNE,22,0.0,0.0,39,0.00,CLR,,0.00,WeatherDisplay:10.37,2013-03-03 06:06:00,
2013-03-02 23:11:00,42.8,19.5,29.84,NNE,22,0.0,0.0,39,0.00,CLR,,0.00,WeatherDisplay:10.37,2013-03-03 06:11:00,
2013-03-02 23:16:00,42.8,19.5,29.84,NNE,22,0.2,0.2,39,0.00,CLR,,0.00,WeatherDisplay:10.37,2013-03-03 06:16:00,
2013-03-02 23:21:00,42.4,19.8,29.83,NNE,22,0.0,0.0,40,0.00,CLR,,0.00,WeatherDisplay:10.37,2013-03-03 06:21:00,
2013-03-02 23:26:00,42.4,19.8,29.83,ENE,68,0.0,0.0,40,0.00,CLR,,0.00,WeatherDisplay:10.37,2013-03-03 06:26:00,
2013-03-02 23:31:00,42.4,20.9,29.83,ENE,68,0.0,0.0,42,0.00,CLR,,0.00,WeatherDisplay:10.37,2013-03-03 06:31:00,
2013-03-02 23:36:00,42.6,20.5,29.83,NE,45,0.0,0.0,41,0.00,CLR,,0.00,WeatherDisplay:10.37,2013-03-03 06:36:00,
2013-03-02 23:41:00,42.6,20.5,29.82,NE,45,0.0,0.0,41,0.00,CLR,,0.00,WeatherDisplay:10.37,2013-03-03 06:41:00,
2013-03-02 23:46:00,42.4,20.9,29.82,NNE,22,1.2,0.0,42,0.00,CLR,,0.00,WeatherDisplay:10.37,2013-03-03 06:46:00,
2013-03-02 23:51:00,42.6,21.1,29.82,North,0,0.0,0.2,42,0.00,CLR,,0.00,WeatherDisplay:10.37,2013-03-03 06:51:00,
2013-03-02 23:56:00,42.6,21.1,29.82,NE,45,1.2,1.2,42,0.00,CLR,,0.00,WeatherDisplay:10.37,2013-03-03 06:56:00,